sat.trackr.live / text

‹ back to catalog

JILIN-1 09

NORAD 43943 · 2019-005B

PAYLOAD ACTIVE UNKNOWN

§ Identity

Operator
Country
PRC
Launch date
2019-01-21
Launch site
JSC
Launch vehicle
Mass (kg)
RCS (m²)

External: N2YO · Heavens-Above · Gunter

§ Orbital elements

Epoch: 2026-09-09T04:48:49.527072Z

Period
94.67 min
Inclination
97.4739°
Eccentricity
0.0003222
Mean motion
15.21134186 rev/d
Perigee alt
500.2 km
Apogee alt
504.6 km
Semi-major
6,880.6 km
B*
1.7816e-4
RAAN
346.4797°
Arg perigee
131.5797°
Mean anomaly
228.5715°
Rev number
42,191

§ Raw data

JILIN-1 091 43943U 19005B   26252.20057323  .00003896  00000+0  17816-3 0  99982 43943  97.4739 346.4797 0003222 131.5797 228.5715 15.21134186421915

JSON: /api/v1/satellites/43943 · /tle

For live sub-satellite position, see the globe view (requires WebGL).

§ Visibility from observer

Set your observer location to see the next 7 days of passes ≥ 10°. The values pass through the URL so the page stays shareable.

No JS? Fill the form by hand. The geolocation button needs JavaScript.

§ Radio — SatNOGS DB

ModeDescriptionDownlinkUplink
BPSK Telemetry 2.284 GHz

1 transmitter · refreshed weekly from db.satnogs.org